| time (UTC) | temp F | wind direction | speed MPH | gust MPH | rain 1hr in | rain 24hr in | rain mn in | humidity % | barometer mb |
| 20260505204533 | 85 | 258 | 3.0 | 10.0 | 0.00 | 0.00 | 0.00 | 49 | 1005.3 |
| 20260505204033 | 85 | 104 | 3.0 | 6.0 | 0.00 | 0.00 | 0.00 | 49 | 1005.4 |
| 20260505203554 | 87 | 274 | 4.0 | 10.0 | 0.00 | 0.00 | 0.00 | 47 | 1005.3 |
| 20260505203033 | 87 | 351 | 3.0 | 7.0 | 0.00 | 0.00 | 0.00 | 49 | 1005.3 |
| 20260505202554 | 90 | 45 | 3.0 | 8.0 | 0.00 | 0.00 | 0.00 | 49 | 1005.2 |
| 20260505202020 | 91 | 191 | 2.0 | 3.0 | 0.00 | 0.00 | 0.00 | 53 | 1005.0 |
| 20260505201603 | 90 | 127 | 1.0 | 2.0 | 0.00 | 0.00 | 0.00 | 57 | 1005.1 |
| 20260505201043 | 90 | 117 | 1.0 | 2.0 | 0.00 | 0.00 | 0.00 | 58 | 1005.2 |
| 20260505200533 | 89 | 117 | 0.0 | 1.0 | 0.00 | 0.00 | 0.00 | 59 | 1005.2 |
| 20260505200034 | 89 | 126 | 1.0 | 5.0 | 0.00 | 0.00 | 0.00 | 59 | 1005.3 |
| 20260505195534 | 89 | 144 | 2.0 | 2.0 | 0.00 | 0.00 | 0.00 | 59 | 1005.3 |
| 20260505195034 | 88 | 130 | 1.0 | 2.0 | 0.00 | 0.00 | 0.00 | 60 | 1005.3 |
| 20260505194533 | 89 | 132 | 1.0 | 2.0 | 0.00 | 0.00 | 0.00 | 60 | 1005.3 |
| 20260505194033 | 89 | 146 | 1.0 | 3.0 | 0.00 | 0.00 | 0.00 | 59 | 1005.4 |
| 20260505193534 | 88 | 123 | 1.0 | 2.0 | 0.00 | 0.00 | 0.00 | 60 | 1005.3 |
| 20260505193028 | 88 | 118 | 1.0 | 3.0 | 0.00 | 0.00 | 0.00 | 60 | 1005.5 |
| 20260505192611 | 89 | 156 | 1.0 | 2.0 | 0.00 | 0.00 | 0.00 | 60 | 1005.4 |
| 20260505192051 | 88 | 158 | 1.0 | 3.0 | 0.00 | 0.00 | 0.00 | 61 | 1005.4 |
| 20260505191535 | 88 | 147 | 1.0 | 2.0 | 0.00 | 0.00 | 0.00 | 60 | 1005.3 |
| 20260505191054 | 88 | 154 | 1.0 | 5.0 | 0.00 | 0.00 | 0.00 | 61 | 1005.2 |
| 20260505190533 | 88 | 166 | 2.0 | 3.0 | 0.00 | 0.00 | 0.00 | 61 | 1005.3 |
| 20260505190054 | 88 | 102 | 1.0 | 3.0 | 0.00 | 0.00 | 0.00 | 62 | 1005.2 |
| 20260505185533 | 88 | 185 | 1.0 | 3.0 | 0.00 | 0.00 | 0.00 | 62 | 1005.2 |
| 20260505185034 | 88 | 100 | 1.0 | 2.0 | 0.00 | 0.00 | 0.00 | 63 | 1005.3 |
| 20260505184555 | 87 | 154 | 1.0 | 2.0 | 0.00 | 0.00 | 0.00 | 63 | 1005.3 |
| 20260505184053 | 86 | 192 | 2.0 | 3.0 | 0.00 | 0.00 | 0.00 | 62 | 1005.2 |
| 20260505183619 | 86 | 157 | 2.0 | 3.0 | 0.00 | 0.00 | 0.00 | 64 | 1005.2 |
| 20260505183059 | 85 | 127 | 1.0 | 2.0 | 0.00 | 0.00 | 0.00 | 65 | 1005.4 |
| 20260505182539 | 84 | 129 | 2.0 | 3.0 | 0.00 | 0.00 | 0.00 | 66 | 1005.4 |
| 20260505182033 | 85 | 134 | 2.0 | 3.0 | 0.00 | 0.00 | 0.00 | 66 | 1005.6 |
| 20260505181554 | 84 | 136 | 1.0 | 2.0 | 0.00 | 0.00 | 0.00 | 66 | 1005.5 |
| 20260505181033 | 84 | 150 | 1.0 | 3.0 | 0.00 | 0.00 | 0.00 | 65 | 1005.5 |
| 20260505180534 | 84 | 150 | 1.0 | 3.0 | 0.00 | 0.00 | 0.00 | 65 | 1005.5 |
| 20260505180021 | 85 | 144 | 1.0 | 3.0 | 0.00 | 0.00 | 0.00 | 66 | 1005.5 |
| 20260505175603 | 84 | 135 | 2.0 | 2.0 | 0.00 | 0.00 | 0.00 | 65 | 1005.6 |
| 20260505175043 | 84 | 177 | 2.0 | 6.0 | 0.00 | 0.00 | 0.00 | 64 | 1005.6 |
| 20260505174535 | 85 | 209 | 2.0 | 5.0 | 0.00 | 0.00 | 0.00 | 64 | 1005.5 |
| 20260505174034 | 85 | 178 | 2.0 | 6.0 | 0.00 | 0.00 | 0.00 | 64 | 1005.4 |
| 20260505173639 | 86 | 166 | 2.0 | 3.0 | 0.00 | 0.00 | 0.00 | 65 | 1005.4 |
| 20260505173059 | 86 | 132 | 1.0 | 1.0 | 0.00 | 0.00 | 0.00 | 66 | 1005.4 |
| 20260505172533 | 85 | 94 | 1.0 | 2.0 | 0.00 | 0.00 | 0.00 | 67 | 1005.3 |
| 20260505172034 | 84 | 211 | 2.0 | 5.0 | 0.00 | 0.00 | 0.00 | 67 | 1005.3 |
| 20260505171533 | 84 | 137 | 2.0 | 3.0 | 0.00 | 0.00 | 0.00 | 69 | 1005.2 |
| 20260505171033 | 83 | 115 | 1.0 | 2.0 | 0.00 | 0.00 | 0.00 | 71 | 1005.3 |
| 20260505170533 | 82 | 157 | 1.0 | 2.0 | 0.00 | 0.00 | 0.00 | 72 | 1005.3 |
| 20260505170033 | 82 | 117 | 1.0 | 3.0 | 0.00 | 0.00 | 0.00 | 73 | 1005.2 |
| 20260505165533 | 81 | 129 | 2.0 | 2.0 | 0.00 | 0.00 | 0.00 | 74 | 1005.3 |
| 20260505165027 | 81 | 136 | 1.0 | 2.0 | 0.00 | 0.00 | 0.00 | 74 | 1005.5 |
| 20260505164555 | 80 | 135 | 1.0 | 3.0 | 0.00 | 0.00 | 0.00 | 75 | 1005.4 |
| 20260505164034 | 80 | 143 | 2.0 | 3.0 | 0.00 | 0.00 | 0.00 | 75 | 1005.6 |
| 20260505163534 | 80 | 133 | 1.0 | 2.0 | 0.00 | 0.00 | 0.00 | 77 | 1005.4 |
| 20260505163055 | 80 | 124 | 1.0 | 2.0 | 0.00 | 0.00 | 0.00 | 76 | 1005.4 |
| 20260505162533 | 80 | 142 | 1.0 | 2.0 | 0.00 | 0.00 | 0.00 | 77 | 1005.4 |
| 20260505162034 | 79 | 111 | 1.0 | 3.0 | 0.00 | 0.00 | 0.00 | 77 | 1005.4 |
| 20260505161534 | 79 | 168 | 1.0 | 3.0 | 0.00 | 0.00 | 0.00 | 77 | 1005.3 |
| 20260505161033 | 79 | 109 | 1.0 | 5.0 | 0.00 | 0.00 | 0.00 | 78 | 1005.2 |
| 20260505160554 | 78 | 150 | 1.0 | 2.0 | 0.00 | 0.00 | 0.00 | 78 | 1005.2 |
| 20260505153028 | 76 | 137 | 1.0 | 2.0 | 0.00 | 0.00 | 0.00 | 81 | 1005.3 |
| 20260505152611 | 75 | 147 | 2.0 | 3.0 | 0.00 | 0.00 | 0.00 | 82 | 1005.0 |
| 20260505152051 | 75 | 171 | 2.0 | 3.0 | 0.00 | 0.00 | 0.00 | 81 | 1005.1 |
| 20260505151535 | 75 | 146 | 2.0 | 3.0 | 0.00 | 0.00 | 0.00 | 81 | 1005.2 |
| 20260505151034 | 76 | 137 | 1.0 | 3.0 | 0.00 | 0.00 | 0.00 | 80 | 1005.2 |
| 20260505150533 | 76 | 160 | 2.0 | 3.0 | 0.00 | 0.00 | 0.00 | 80 | 1005.1 |
| 20260505140533 | 73 | 137 | 2.0 | 3.0 | 0.00 | 0.00 | 0.00 | 85 | 1004.9 |
| 20260505130108 | 70 | 134 | 1.0 | 2.0 | 0.00 | 0.00 | 0.00 | 89 | 1004.5 |
| 20260505125033 | 70 | 110 | 1.0 | 3.0 | 0.00 | 0.00 | 0.00 | 89 | 1004.6 |
| 20260505124534 | 70 | 125 | 1.0 | 2.0 | 0.00 | 0.00 | 0.00 | 89 | 1004.6 |
| 20260505124113 | 70 | 140 | 1.0 | 2.0 | 0.00 | 0.00 | 0.00 | 89 | 1004.7 |
| 20260505123532 | 69 | 141 | 1.0 | 2.0 | 0.00 | 0.00 | 0.00 | 89 | 1004.4 |
| 20260505123115 | 69 | 141 | 2.0 | 3.0 | 0.00 | 0.00 | 0.00 | 90 | 1004.3 |
| 20260505122555 | 69 | 140 | 1.0 | 2.0 | 0.00 | 0.00 | 0.00 | 90 | 1004.3 |
| 20260505122054 | 69 | 125 | 1.0 | 2.0 | 0.00 | 0.00 | 0.00 | 90 | 1004.2 |
| 20260505121534 | 69 | 116 | 1.0 | 3.0 | 0.00 | 0.00 | 0.00 | 90 | 1004.1 |
| 20260505121034 | 69 | 143 | 1.0 | 2.0 | 0.00 | 0.00 | 0.00 | 90 | 1004.0 |
| 20260505120534 | 69 | 134 | 1.0 | 2.0 | 0.00 | 0.00 | 0.00 | 90 | 1004.0 |
| 20260505120041 | 69 | 133 | 1.0 | 2.0 | 0.00 | 0.00 | 0.00 | 90 | 1003.9 |
| 20260505115603 | 69 | 138 | 1.0 | 2.0 | 0.00 | 0.00 | 0.00 | 90 | 1004.1 |
| 20260505115034 | 69 | 135 | 1.0 | 2.0 | 0.00 | 0.00 | 0.00 | 90 | 1004.1 |
| 20260505114534 | 69 | 149 | 1.0 | 3.0 | 0.00 | 0.00 | 0.00 | 90 | 1004.2 |
| 20260505114054 | 69 | 140 | 1.0 | 2.0 | 0.00 | 0.00 | 0.00 | 90 | 1004.0 |
| 20260505113534 | 69 | 145 | 1.0 | 2.0 | 0.00 | 0.00 | 0.00 | 90 | 1004.0 |
| 20260505113033 | 69 | 117 | 2.0 | 2.0 | 0.00 | 0.00 | 0.00 | 90 | 1003.9 |
| 20260505112533 | 69 | 142 | 2.0 | 2.0 | 0.00 | 0.00 | 0.00 | 91 | 1003.8 |
| 20260505112033 | 69 | 146 | 1.0 | 2.0 | 0.00 | 0.00 | 0.00 | 91 | 1003.8 |
| 20260505111534 | 69 | 143 | 1.0 | 2.0 | 0.00 | 0.00 | 0.00 | 91 | 1003.8 |
| 20260505111053 | 69 | 129 | 1.0 | 2.0 | 0.00 | 0.00 | 0.00 | 91 | 1003.8 |
| 20260505110533 | 68 | 147 | 1.0 | 3.0 | 0.00 | 0.00 | 0.00 | 91 | 1003.8 |
| 20260505102108 | 69 | 134 | 1.0 | 2.0 | 0.00 | 0.00 | 0.00 | 91 | 1003.8 |
| 20260505101554 | 69 | 138 | 1.0 | 2.0 | 0.00 | 0.00 | 0.00 | 91 | 1003.8 |
| 20260505101028 | 69 | 129 | 2.0 | 3.0 | 0.00 | 0.00 | 0.00 | 90 | 1004.0 |
| 20260505100611 | 69 | 140 | 1.0 | 2.0 | 0.00 | 0.00 | 0.00 | 90 | 1003.9 |
| 20260505100054 | 69 | 143 | 1.0 | 3.0 | 0.00 | 0.00 | 0.00 | 90 | 1003.8 |
| 20260505095534 | 69 | 148 | 2.0 | 3.0 | 0.00 | 0.00 | 0.00 | 90 | 1003.7 |
| 20260505095028 | 69 | 155 | 1.0 | 2.0 | 0.00 | 0.00 | 0.00 | 90 | 1003.8 |
| 20260505094631 | 69 | 159 | 2.0 | 3.0 | 0.00 | 0.00 | 0.00 | 90 | 1003.8 |
| 20260505094051 | 69 | 152 | 1.0 | 2.0 | 0.00 | 0.00 | 0.00 | 90 | 1004.1 |
| 20260505093552 | 69 | 146 | 2.0 | 3.0 | 0.00 | 0.00 | 0.00 | 89 | 1003.7 |
| 20260505093116 | 69 | 148 | 2.0 | 2.0 | 0.00 | 0.00 | 0.00 | 89 | 1003.8 |
| 20260505092533 | 69 | 146 | 1.0 | 2.0 | 0.00 | 0.00 | 0.00 | 89 | 1003.8 |
| 20260505092034 | 70 | 140 | 1.0 | 2.0 | 0.00 | 0.00 | 0.00 | 89 | 1003.9 |
| 20260505091554 | 70 | 141 | 2.0 | 2.0 | 0.00 | 0.00 | 0.00 | 88 | 1003.8 |
| 20260505091033 | 70 | 156 | 2.0 | 2.0 | 0.00 | 0.00 | 0.00 | 88 | 1003.8 |
| 20260505090534 | 70 | 149 | 2.0 | 3.0 | 0.00 | 0.00 | 0.00 | 88 | 1004.1 |
| 20260505090034 | 70 | 146 | 2.0 | 3.0 | 0.00 | 0.00 | 0.00 | 88 | 1004.2 |
| 20260505085533 | 70 | 157 | 2.0 | 2.0 | 0.00 | 0.00 | 0.00 | 88 | 1004.2 |
| 20260505085034 | 70 | 128 | 1.0 | 3.0 | 0.00 | 0.00 | 0.00 | 87 | 1004.3 |
| 20260505084534 | 70 | 135 | 1.0 | 2.0 | 0.00 | 0.00 | 0.00 | 87 | 1004.3 |
| 20260505084033 | 70 | 151 | 2.0 | 3.0 | 0.00 | 0.00 | 0.00 | 87 | 1004.2 |
| 20260505083534 | 70 | 150 | 2.0 | 2.0 | 0.00 | 0.00 | 0.00 | 87 | 1004.4 |
| 20260505083034 | 70 | 124 | 1.0 | 2.0 | 0.00 | 0.00 | 0.00 | 86 | 1004.3 |
| 20260505082533 | 71 | 141 | 2.0 | 3.0 | 0.00 | 0.00 | 0.00 | 86 | 1004.3 |
| 20260505082208 | 71 | 137 | 2.0 | 3.0 | 0.00 | 0.00 | 0.00 | 85 | 1004.5 |
| 20260505081548 | 71 | 137 | 1.0 | 2.0 | 0.00 | 0.00 | 0.00 | 85 | 1004.4 |
| 20260505081033 | 71 | 147 | 2.0 | 3.0 | 0.00 | 0.00 | 0.00 | 85 | 1004.3 |
| 20260505080533 | 71 | 136 | 2.0 | 3.0 | 0.00 | 0.00 | 0.00 | 84 | 1004.2 |
| 20260505080033 | 71 | 137 | 1.0 | 2.0 | 0.00 | 0.00 | 0.00 | 84 | 1004.3 |
| 20260505075533 | 71 | 151 | 2.0 | 2.0 | 0.00 | 0.00 | 0.00 | 84 | 1004.3 |
| 20260505075033 | 71 | 141 | 1.0 | 3.0 | 0.00 | 0.00 | 0.00 | 84 | 1004.3 |
| 20260505074554 | 71 | 159 | 2.0 | 3.0 | 0.00 | 0.00 | 0.00 | 84 | 1004.4 |
| 20260505074033 | 71 | 145 | 1.0 | 3.0 | 0.00 | 0.00 | 0.00 | 83 | 1004.4 |
| 20260505073553 | 71 | 120 | 2.0 | 2.0 | 0.00 | 0.00 | 0.00 | 83 | 1004.5 |
| 20260505073054 | 71 | 143 | 1.0 | 2.0 | 0.00 | 0.00 | 0.00 | 83 | 1004.6 |
| 20260505072534 | 71 | 159 | 2.0 | 2.0 | 0.00 | 0.00 | 0.00 | 83 | 1004.6 |
| 20260505072020 | 71 | 141 | 2.0 | 3.0 | 0.00 | 0.00 | 0.00 | 82 | 1004.8 |
| 20260505071625 | 72 | 145 | 1.0 | 2.0 | 0.00 | 0.00 | 0.00 | 82 | 1004.8 |
| 20260505071114 | 72 | 155 | 2.0 | 3.0 | 0.00 | 0.00 | 0.00 | 82 | 1004.9 |
| 20260505070533 | 72 | 166 | 2.0 | 3.0 | 0.00 | 0.00 | 0.00 | 81 | 1004.9 |
| 20260505070033 | 72 | 162 | 2.0 | 3.0 | 0.00 | 0.00 | 0.00 | 81 | 1005.0 |
| 20260505065533 | 72 | 143 | 2.0 | 5.0 | 0.00 | 0.00 | 0.00 | 81 | 1005.1 |
| 20260505065054 | 72 | 150 | 2.0 | 3.0 | 0.00 | 0.00 | 0.00 | 81 | 1005.2 |
| 20260505064533 | 72 | 166 | 2.0 | 3.0 | 0.00 | 0.00 | 0.00 | 81 | 1005.3 |
| 20260505064034 | 72 | 170 | 2.0 | 3.0 | 0.00 | 0.00 | 0.00 | 81 | 1005.3 |
| 20260505063553 | 72 | 154 | 2.0 | 3.0 | 0.00 | 0.00 | 0.00 | 80 | 1005.3 |
| 20260505063034 | 73 | 168 | 2.0 | 3.0 | 0.00 | 0.00 | 0.00 | 80 | 1005.3 |
| 20260505062533 | 73 | 153 | 2.0 | 3.0 | 0.00 | 0.00 | 0.00 | 80 | 1005.4 |
| 20260505062020 | 73 | 155 | 2.0 | 3.0 | 0.00 | 0.00 | 0.00 | 80 | 1005.5 |
| 20260505061604 | 73 | 163 | 2.0 | 3.0 | 0.00 | 0.00 | 0.00 | 80 | 1005.4 |
| 20260505061104 | 73 | 163 | 2.0 | 3.0 | 0.00 | 0.00 | 0.00 | 79 | 1005.5 |
| 20260505060615 | 73 | 157 | 2.0 | 5.0 | 0.00 | 0.00 | 0.00 | 79 | 1005.5 |
| 20260505060035 | 73 | 179 | 2.0 | 3.0 | 0.00 | 0.00 | 0.00 | 79 | 1005.4 |
| 20260505055534 | 73 | 180 | 2.0 | 3.0 | 0.00 | 0.00 | 0.00 | 79 | 1005.6 |
| 20260505055049 | 73 | 173 | 2.0 | 5.0 | 0.00 | 0.00 | 0.00 | 79 | 1005.6 |
| 20260505054611 | 73 | 166 | 2.0 | 2.0 | 0.00 | 0.00 | 0.00 | 79 | 1005.6 |
| 20260505054052 | 73 | 169 | 2.0 | 2.0 | 0.00 | 0.00 | 0.00 | 80 | 1005.5 |
| 20260505053535 | 73 | 159 | 2.0 | 3.0 | 0.00 | 0.00 | 0.00 | 79 | 1005.5 |
| 20260505053035 | 73 | 168 | 2.0 | 5.0 | 0.00 | 0.00 | 0.00 | 79 | 1005.5 |
| 20260505052555 | 73 | 175 | 2.0 | 5.0 | 0.00 | 0.00 | 0.00 | 79 | 1005.3 |
| 20260505052034 | 74 | 167 | 2.0 | 5.0 | 0.00 | 0.00 | 0.00 | 79 | 1005.4 |
| 20260505051533 | 74 | 169 | 3.0 | 6.0 | 0.00 | 0.00 | 0.00 | 78 | 1005.4 |
| 20260505051116 | 74 | 171 | 3.0 | 3.0 | 0.00 | 0.00 | 0.00 | 78 | 1005.5 |
| 20260505050556 | 74 | 163 | 2.0 | 3.0 | 0.00 | 0.00 | 0.00 | 78 | 1005.4 |
| 20260505041620 | 74 | 136 | 2.0 | 2.0 | 0.00 | 0.00 | 0.00 | 78 | 1005.8 |
| 20260505041100 | 74 | 160 | 2.0 | 5.0 | 0.00 | 0.00 | 0.00 | 78 | 1005.8 |
| 20260505040536 | 74 | 158 | 2.0 | 6.0 | 0.00 | 0.00 | 0.00 | 78 | 1005.8 |
| 20260505040055 | 74 | 145 | 2.0 | 2.0 | 0.00 | 0.00 | 0.00 | 78 | 1006.0 |
| 20260505035535 | 74 | 150 | 2.0 | 3.0 | 0.00 | 0.00 | 0.00 | 78 | 1005.9 |
| 20260505035035 | 74 | 136 | 2.0 | 3.0 | 0.00 | 0.00 | 0.00 | 78 | 1005.9 |
| 20260505034525 | 74 | 149 | 1.0 | 2.0 | 0.00 | 0.00 | 0.00 | 77 | 1005.8 |
| 20260505034108 | 74 | 150 | 2.0 | 3.0 | 0.00 | 0.00 | 0.00 | 77 | 1005.8 |
| 20260505033548 | 74 | 158 | 2.0 | 5.0 | 0.00 | 0.00 | 0.00 | 76 | 1005.8 |
| 20260505033035 | 74 | 146 | 2.0 | 5.0 | 0.00 | 0.00 | 0.00 | 76 | 1005.8 |
| 20260505032535 | 74 | 131 | 1.0 | 2.0 | 0.00 | 0.00 | 0.00 | 77 | 1005.7 |
| 20260505032035 | 75 | 111 | 2.0 | 5.0 | 0.00 | 0.00 | 0.00 | 76 | 1005.7 |
| 20260505031533 | 74 | 156 | 2.0 | 3.0 | 0.00 | 0.00 | 0.00 | 76 | 1005.7 |
| 20260505031116 | 74 | 146 | 2.0 | 3.0 | 0.00 | 0.00 | 0.00 | 77 | 1005.6 |
| 20260505030540 | 74 | 141 | 2.0 | 5.0 | 0.00 | 0.00 | 0.00 | 76 | 1005.6 |
| 20260505030035 | 74 | 149 | 2.0 | 5.0 | 0.00 | 0.00 | 0.00 | 76 | 1005.6 |
| 20260505025620 | 74 | 183 | 2.0 | 3.0 | 0.00 | 0.00 | 0.00 | 76 | 1005.7 |
| 20260505025100 | 74 | 149 | 2.0 | 3.0 | 0.00 | 0.00 | 0.00 | 76 | 1005.7 |
| 20260505024601 | 74 | 159 | 2.0 | 6.0 | 0.00 | 0.00 | 0.00 | 76 | 1005.8 |
| 20260505024035 | 74 | 142 | 2.0 | 3.0 | 0.00 | 0.00 | 0.00 | 76 | 1005.8 |
| 20260505023533 | 74 | 158 | 2.0 | 5.0 | 0.00 | 0.00 | 0.00 | 76 | 1005.7 |
| 20260505023117 | 74 | 141 | 1.0 | 3.0 | 0.00 | 0.00 | 0.00 | 76 | 1005.8 |
| 20260505022540 | 74 | 139 | 1.0 | 3.0 | 0.00 | 0.00 | 0.00 | 76 | 1005.6 |
| 20260505022020 | 75 | 146 | 1.0 | 3.0 | 0.00 | 0.00 | 0.00 | 76 | 1005.7 |
| 20260505021604 | 75 | 168 | 2.0 | 2.0 | 0.00 | 0.00 | 0.00 | 75 | 1005.8 |
| 20260505021044 | 75 | 170 | 2.0 | 3.0 | 0.00 | 0.00 | 0.00 | 75 | 1005.7 |
| 20260505020524 | 75 | 128 | 1.0 | 2.0 | 0.00 | 0.00 | 0.00 | 75 | 1005.6 |
| 20260505020108 | 75 | 139 | 2.0 | 3.0 | 0.00 | 0.00 | 0.00 | 75 | 1005.7 |
| 20260505015548 | 75 | 152 | 2.0 | 3.0 | 0.00 | 0.00 | 0.00 | 75 | 1005.6 |
| 20260505015028 | 75 | 147 | 1.0 | 2.0 | 0.00 | 0.00 | 0.00 | 74 | 1005.6 |
| 20260505014612 | 75 | 148 | 2.0 | 3.0 | 0.00 | 0.00 | 0.00 | 75 | 1005.8 |
| 20260505014052 | 75 | 162 | 2.0 | 3.0 | 0.00 | 0.00 | 0.00 | 75 | 1005.7 |
| 20260505013533 | 75 | 149 | 2.0 | 5.0 | 0.00 | 0.00 | 0.00 | 75 | 1005.8 |
| 20260505013136 | 75 | 152 | 2.0 | 3.0 | 0.00 | 0.00 | 0.00 | 75 | 1005.7 |
| 20260505012556 | 75 | 153 | 2.0 | 5.0 | 0.00 | 0.00 | 0.00 | 74 | 1005.7 |
| 20260505012035 | 75 | 150 | 2.0 | 2.0 | 0.00 | 0.00 | 0.00 | 74 | 1005.8 |
| 20260505011620 | 75 | 159 | 2.0 | 3.0 | 0.00 | 0.00 | 0.00 | 74 | 1005.8 |
| 20260505011100 | 75 | 149 | 2.0 | 3.0 | 0.00 | 0.00 | 0.00 | 74 | 1005.7 |
| 20260505010540 | 75 | 137 | 1.0 | 3.0 | 0.00 | 0.00 | 0.00 | 73 | 1005.6 |
| 20260505010042 | 76 | 142 | 2.0 | 2.0 | 0.00 | 0.00 | 0.00 | 72 | 1005.7 |
| 20260505005604 | 76 | 138 | 1.0 | 2.0 | 0.00 | 0.00 | 0.00 | 72 | 1005.6 |
| 20260505005044 | 76 | 142 | 1.0 | 2.0 | 0.00 | 0.00 | 0.00 | 72 | 1005.7 |
| 20260505004525 | 76 | 161 | 2.0 | 3.0 | 0.00 | 0.00 | 0.00 | 71 | 1005.8 |
| 20260505004128 | 76 | 145 | 1.0 | 2.0 | 0.00 | 0.00 | 0.00 | 72 | 1005.8 |
| 20260505003548 | 77 | 161 | 2.0 | 3.0 | 0.00 | 0.00 | 0.00 | 71 | 1005.9 |
| 20260505003029 | 77 | 149 | 2.0 | 3.0 | 0.00 | 0.00 | 0.00 | 71 | 1005.8 |
| 20260505002612 | 77 | 151 | 1.0 | 2.0 | 0.00 | 0.00 | 0.00 | 71 | 1005.7 |
| 20260505002112 | 77 | 144 | 2.0 | 3.0 | 0.00 | 0.00 | 0.00 | 70 | 1005.8 |
| 20260505001534 | 77 | 165 | 2.0 | 3.0 | 0.00 | 0.00 | 0.00 | 70 | 1005.9 |
| 20260505001116 | 77 | 138 | 2.0 | 3.0 | 0.00 | 0.00 | 0.00 | 70 | 1005.7 |
| 20260505000556 | 78 | 156 | 2.0 | 3.0 | 0.00 | 0.00 | 0.00 | 70 | 1005.7 |
| 20260505000035 | 78 | 160 | 2.0 | 5.0 | 0.00 | 0.00 | 0.00 | 69 | 1005.8 |
| 20260504235620 | 78 | 194 | 2.0 | 3.0 | 0.00 | 0.00 | 0.00 | 69 | 1005.9 |
| 20260504235125 | 79 | 150 | 2.0 | 3.0 | 0.00 | 0.00 | 0.00 | 68 | 1006.1 |
| 20260504234526 | 79 | 177 | 3.0 | 6.0 | 0.00 | 0.00 | 0.00 | 67 | 1006.2 |
| 20260504234112 | 78 | 159 | 2.0 | 2.0 | 0.00 | 0.00 | 0.00 | 68 | 1006.2 |
| 20260504233533 | 79 | 139 | 2.0 | 3.0 | 0.00 | 0.00 | 0.00 | 68 | 1006.1 |
| 20260504233116 | 79 | 184 | 2.0 | 3.0 | 0.00 | 0.00 | 0.00 | 68 | 1006.1 |
| 20260504232556 | 79 | 130 | 2.0 | 3.0 | 0.00 | 0.00 | 0.00 | 67 | 1006.1 |
| 20260504232035 | 79 | 197 | 2.0 | 5.0 | 0.00 | 0.00 | 0.00 | 66 | 1006.2 |
| 20260504231549 | 79 | 178 | 2.0 | 3.0 | 0.00 | 0.00 | 0.00 | 67 | 1006.2 |
| 20260504231029 | 79 | 176 | 3.0 | 6.0 | 0.00 | 0.00 | 0.00 | 66 | 1006.2 |
| 20260504230612 | 79 | 183 | 3.0 | 6.0 | 0.00 | 0.00 | 0.00 | 66 | 1006.2 |
| 20260504230035 | 80 | 173 | 2.0 | 3.0 | 0.00 | 0.00 | 0.00 | 66 | 1006.3 |
| 20260504225640 | 80 | 193 | 3.0 | 6.0 | 0.00 | 0.00 | 0.00 | 65 | 1006.2 |
| 20260504225044 | 80 | 165 | 3.0 | 6.0 | 0.00 | 0.00 | 0.00 | 65 | 1006.4 |
| 20260504224612 | 80 | 152 | 3.0 | 3.0 | 0.00 | 0.00 | 0.00 | 64 | 1006.5 |
| 20260504224052 | 81 | 180 | 3.0 | 5.0 | 0.00 | 0.00 | 0.00 | 63 | 1006.6 |
| 20260504223533 | 81 | 173 | 3.0 | 6.0 | 0.00 | 0.00 | 0.00 | 63 | 1006.4 |
| 20260504223101 | 81 | 203 | 3.0 | 5.0 | 0.00 | 0.00 | 0.00 | 63 | 1006.5 |
| 20260504222535 | 82 | 190 | 3.0 | 3.0 | 0.00 | 0.00 | 0.00 | 62 | 1006.5 |
| 20260504222108 | 82 | 173 | 2.0 | 3.0 | 0.00 | 0.00 | 0.00 | 63 | 1006.5 |
| 20260504221549 | 82 | 146 | 2.0 | 6.0 | 0.00 | 0.00 | 0.00 | 62 | 1006.5 |
| 20260504221029 | 82 | 175 | 3.0 | 8.0 | 0.00 | 0.00 | 0.00 | 63 | 1006.5 |
| 20260504220612 | 82 | 171 | 3.0 | 6.0 | 0.00 | 0.00 | 0.00 | 64 | 1006.5 |
| 20260504220052 | 82 | 151 | 2.0 | 3.0 | 0.00 | 0.00 | 0.00 | 63 | 1006.7 |
| 20260504215533 | 82 | 183 | 3.0 | 5.0 | 0.00 | 0.00 | 0.00 | 63 | 1006.9 |
| 20260504215117 | 81 | 164 | 2.0 | 6.0 | 0.00 | 0.00 | 0.00 | 63 | 1006.8 |
| 20260504214556 | 82 | 182 | 3.0 | 6.0 | 0.00 | 0.00 | 0.00 | 63 | 1006.8 |
| 20260504214035 | 82 | 193 | 2.0 | 6.0 | 0.00 | 0.00 | 0.00 | 63 | 1006.8 |
| 20260504213620 | 81 | 143 | 2.0 | 5.0 | 0.00 | 0.00 | 0.00 | 63 | 1007.0 |
| 20260504213045 | 81 | 194 | 2.0 | 7.0 | 0.00 | 0.00 | 0.00 | 63 | 1007.0 |
| 20260504212629 | 81 | 206 | 2.0 | 6.0 | 0.00 | 0.00 | 0.00 | 62 | 1007.1 |
| 20260504212113 | 82 | 159 | 2.0 | 3.0 | 0.00 | 0.00 | 0.00 | 62 | 1007.2 |
| 20260504211534 | 82 | 159 | 3.0 | 6.0 | 0.00 | 0.00 | 0.00 | 61 | 1007.5 |
| 20260504211116 | 83 | 153 | 3.0 | 5.0 | 0.00 | 0.00 | 0.00 | 61 | 1007.5 |
| 20260504210556 | 83 | 157 | 2.0 | 6.0 | 0.00 | 0.00 | 0.00 | 61 | 1007.4 |
| 20260504210036 | 83 | 135 | 3.0 | 6.0 | 0.00 | 0.00 | 0.00 | 60 | 1007.5 |
| 20260504205604 | 82 | 165 | 3.0 | 5.0 | 0.00 | 0.00 | 0.00 | 61 | 1007.6 |
| 20260504205029 | 82 | 151 | 3.0 | 5.0 | 0.00 | 0.00 | 0.00 | 61 | 1007.7 |